Date String (YYYY-MM-DD hh:mm:ss) UTC,Instrument flags,absolute air pressure of the measurement (hPa),sample flow rate (lpm),inlet stack bypass flow (lpm),air temperature of the measurement (°C),ambient temperature measured by the external sensor (°C),aerosol sample conditioner tube jacket temperature (°C),OPC LED temperature (°C),internal box temperature (°C),relative humidity of the measurement (%),span deviation,mass concentration of particles derived from Lorenz-Mie calculation of OPC scattering (μg/m³),mass concentration of particles derived from Lorenz-Mie calculation of OPC scattering (μg/m³),mass concentration of particles derived from Lorenz-Mie calculation of OPC scattering (μg/m³)
DateTimeUTC,F1_M11,P_M11,Q1_M11,Q2_M11,T1_M11,T2_M11,T3_M11,T4_M11,T5_M11,U1_M11,ZSPAN_M11,X2_M11,X0_M11,X1_M11
2023-06-11 10:00:00,SystemResetWarning,0831.7,4.99,000.00,029.6,028.0,000.0,038.1,031.1,25.9,0000.0,0003.73,0008.06,0003.29
2023-06-11 10:01:00,SystemResetWarning,0831.8,5.00,000.00,029.6,028.0,000.0,038.1,031.1,25.8,0000.0,0003.76,0008.11,0003.31
2023-06-11 10:02:00,SystemResetWarning,0831.7,5.00,000.00,029.6,028.0,000.0,038.1,031.0,26.0,0000.0,0003.77,0008.12,0003.33
2023-06-11 10:03:00,SystemResetWarning,0831.9,5.00,000.00,029.6,028.0,000.0,038.1,031.0,26.1,0000.0,0003.84,0008.31,0003.37
2023-06-11 10:04:00,SystemResetWarning,0831.8,5.00,000.00,029.6,028.0,000.0,038.1,031.0,26.2,0000.0,0003.89,0007.67,0003.39
2023-06-11 10:05:00,SystemResetWarning,0831.8,5.00,000.00,029.6,028.0,000.0,038.1,031.0,26.2,0000.0,0003.90,0007.84,0003.42
2023-06-11 10:06:00,SystemResetWarning,0831.7,5.00,000.00,029.6,028.0,000.0,038.1,031.0,26.1,0000.0,0003.90,0007.76,0003.45
2023-06-11 10:07:00,SystemResetWarning,0831.7,5.00,000.00,029.6,028.0,000.0,038.1,031.0,26.1,0000.0,0003.96,0007.85,0003.47
2023-06-11 10:08:00,SystemResetWarning,0831.7,4.99,000.00,029.6,028.0,000.0,038.1,031.0,26.1,0000.0,0004.00,0008.00,0003.50
2023-06-11 10:09:00,SystemResetWarning,0831.7,5.00,000.00,029.6,028.0,000.0,038.1,031.0,26.1,0000.0,0004.01,0008.05,0003.51
2023-06-11 10:10:00,SystemResetWarning,0831.7,4.99,000.00,029.6,027.9,000.0,038.1,031.0,26.2,0000.0,0004.05,0008.14,0003.53
2023-06-11 10:11:00,SystemResetWarning,0831.7,5.00,000.00,029.6,027.9,000.0,038.1,031.0,26.3,0000.0,0004.07,0008.18,0003.54
2023-06-11 10:12:00,SystemResetWarning,0831.7,5.01,000.00,029.6,027.9,000.0,038.1,031.0,26.3,0000.0,0004.04,0008.07,0003.55
2023-06-11 10:13:00,SystemResetWarning,0831.7,5.00,000.00,029.6,027.9,000.0,038.1,031.0,26.3,0000.0,0004.01,0007.98,0003.55
2023-06-11 10:14:00,SystemResetWarning,0831.7,5.00,000.00,029.6,027.9,000.0,038.1,031.0,26.0,0000.0,0003.97,0007.81,0003.54
2023-06-11 10:15:00,SystemResetWarning,0831.7,5.00,000.00,029.6,027.9,000.0,038.1,031.1,26.0,0000.0,0003.95,0007.68,0003.54
2023-06-11 10:16:00,SystemResetWarning,0831.8,5.01,000.00,029.6,027.9,000.0,038.1,031.1,26.1,0000.0,0003.94,0006.79,0003.53
2023-06-11 10:17:00,SystemResetWarning,0831.8,5.00,000.00,029.6,027.9,000.0,038.1,031.0,26.1,0000.0,0003.93,0006.60,0003.52
2023-06-11 10:18:00,SystemResetWarning,0832.1,4.99,000.00,029.6,027.9,000.0,038.1,031.0,25.9,0000.0,0003.88,0006.36,0003.50
2023-06-11 10:19:00,SystemResetWarning,0832.2,5.00,000.00,029.6,027.9,000.0,038.1,031.0,25.8,0000.0,0003.85,0006.16,0003.49
2023-06-11 10:20:00,SystemResetWarning,0831.9,5.01,000.00,029.6,027.9,000.0,038.1,031.0,25.9,0000.0,0003.84,0006.05,0003.48
2023-06-11 10:21:00,SystemResetWarning,0831.8,5.01,000.00,029.6,027.9,000.0,038.1,031.0,25.8,0000.0,0003.82,0005.92,0003.47
2023-06-11 10:22:00,SystemResetWarning,0832.1,5.00,000.00,029.6,027.9,000.0,038.1,031.0,25.8,0000.0,0003.84,0005.97,0003.47
2023-06-11 10:23:00,SystemResetWarning,0832.1,5.00,000.00,029.6,027.9,000.0,038.1,031.0,26.0,0000.0,0003.87,0006.10,0003.48
2023-06-11 10:24:00,SystemResetWarning,0831.7,4.99,000.00,029.6,027.9,000.0,038.1,031.0,26.1,0000.0,0003.86,0006.16,0003.46
2023-06-11 10:25:00,SystemResetWarning,0831.7,5.00,000.00,029.6,027.9,000.0,038.1,031.0,26.2,0000.0,0003.87,0006.22,0003.46
2023-06-11 10:26:00,SystemResetWarning,0831.8,4.99,000.00,029.6,027.9,000.0,038.1,031.0,26.2,0000.0,0003.86,0006.26,0003.45
2023-06-11 10:27:00,SystemResetWarning,0832.1,5.00,000.00,029.6,027.9,000.0,038.1,031.0,26.2,0000.0,0003.83,0006.25,0003.42
2023-06-11 10:28:00,SystemResetWarning,0832.2,5.00,000.00,029.6,027.9,000.0,038.1,031.0,26.2,0000.0,0003.84,0006.40,0003.42
2023-06-11 10:29:00,SystemResetWarning,0832.2,5.01,000.00,029.6,027.9,000.0,038.1,031.0,26.2,0000.0,0003.83,0006.39,0003.41
2023-06-11 10:30:00,SystemResetWarning,0831.9,5.01,000.00,029.6,027.9,000.0,038.1,031.0,26.1,0000.0,0003.83,0006.54,0003.41
2023-06-11 10:31:00,SystemResetWarning,0832.2,5.00,000.00,029.6,027.9,000.0,038.1,031.0,26.2,0000.0,0003.83,0007.02,0003.41
2023-06-11 10:32:00,SystemResetWarning,0832.2,5.00,000.00,029.6,027.9,000.0,038.1,031.0,26.2,0000.0,0003.82,0007.05,0003.40
2023-06-11 10:33:00,SystemResetWarning,0831.8,5.00,000.00,029.6,027.9,000.0,038.1,031.0,26.2,0000.0,0003.77,0006.91,0003.38
2023-06-11 10:34:00,SystemResetWarning,0831.8,5.00,000.00,029.6,027.9,000.0,038.1,031.0,26.2,0000.0,0003.74,0006.83,0003.36
2023-06-11 10:35:00,SystemResetWarning,0832.1,5.00,000.00,029.6,027.9,000.0,038.1,031.0,26.2,0000.0,0003.75,0006.91,0003.35
2023-06-11 10:36:00,SystemResetWarning,0832.0,5.00,000.00,029.6,027.9,000.0,038.1,031.0,26.2,0000.0,0003.73,0006.89,0003.34
2023-06-11 10:37:00,SystemResetWarning,0831.8,5.00,000.00,029.6,027.9,000.0,038.1,031.0,26.2,0000.0,0003.73,0007.06,0003.33
2023-06-11 10:38:00,SystemResetWarning,0831.8,5.00,000.00,029.6,027.9,000.0,038.1,031.0,26.2,0000.0,0003.79,0007.29,0003.34
2023-06-11 10:39:00,SystemResetWarning,0831.9,5.00,000.00,029.6,027.9,000.0,038.1,031.0,26.2,0000.0,0003.77,0007.16,0003.34
2023-06-11 10:40:00,SystemResetWarning,0831.9,4.99,000.00,029.6,027.9,000.0,038.1,031.0,26.2,0000.0,0003.81,0007.34,0003.34
2023-06-11 10:41:00,SystemResetWarning,0831.9,5.00,000.00,029.6,027.9,000.0,038.1,031.0,26.2,0000.0,0003.80,0007.28,0003.32
2023-06-11 10:42:00,SystemResetWarning,0831.9,5.00,000.00,029.6,027.9,000.0,038.1,031.0,26.2,0000.0,0003.80,0006.87,0003.31
2023-06-11 10:43:00,SystemResetWarning,0831.9,5.00,000.00,029.6,027.9,000.0,038.1,031.0,26.2,0000.0,0003.82,0007.03,0003.31
2023-06-11 10:44:00,SystemResetWarning,0831.9,5.01,000.00,029.6,027.9,000.0,038.1,031.0,26.2,0000.0,0003.83,0007.03,0003.32
2023-06-11 10:45:00,SystemResetWarning,0832.0,5.00,000.00,029.6,027.9,000.0,038.1,031.0,26.2,0000.0,0003.86,0007.20,0003.33
2023-06-11 10:46:00,SystemResetWarning,0832.0,5.00,000.00,029.6,027.9,000.0,038.1,031.0,26.2,0000.0,0003.87,0007.29,0003.34
2023-06-11 10:47:00,SystemResetWarning,0832.0,5.00,000.00,029.6,027.9,000.0,038.1,031.0,26.2,0000.0,0003.88,0007.35,0003.34
2023-06-11 10:48:00,SystemResetWarning,0832.0,5.00,000.00,029.6,027.9,000.0,038.1,031.0,26.2,0000.0,0003.88,0007.31,0003.35
2023-06-11 10:49:00,SystemResetWarning,0832.1,5.00,000.00,029.6,027.9,000.0,038.1,031.0,26.3,0000.0,0003.87,0007.13,0003.35
2023-06-11 10:50:00,SystemResetWarning,0832.0,5.00,000.00,029.6,027.9,000.0,038.1,031.0,26.3,0000.0,0003.83,0006.84,0003.34
2023-06-11 10:51:00,SystemResetWarning,0832.0,5.00,000.00,029.6,027.9,000.0,038.1,031.1,26.3,0000.0,0003.86,0006.95,0003.34
2023-06-11 10:52:00,SystemResetWarning,0832.1,5.01,000.00,029.6,027.9,000.0,038.1,031.1,26.3,0000.0,0003.85,0006.97,0003.35
2023-06-11 10:53:00,SystemResetWarning,0832.1,5.00,000.00,029.6,027.9,000.0,038.1,031.1,26.3,0000.0,0003.88,0007.19,0003.35
2023-06-11 10:54:00,SystemResetWarning,0832.1,4.99,000.00,029.6,027.9,000.0,038.1,031.1,26.3,0000.0,0003.90,0007.28,0003.35
2023-06-11 10:55:00,SystemResetWarning,0832.1,4.99,000.00,029.6,027.9,000.0,038.1,031.1,26.2,0000.0,0003.89,0007.23,0003.34
2023-06-11 10:56:00,SystemResetWarning,0832.1,5.01,000.00,029.6,027.9,000.0,038.1,031.0,26.2,0000.0,0003.88,0007.21,0003.34
2023-06-11 10:57:00,SystemResetWarning,0832.1,5.00,000.00,029.6,027.9,000.0,038.1,031.0,26.2,0000.0,0003.91,0007.28,0003.35
2023-06-11 10:58:00,SystemResetWarning,0832.1,5.00,000.00,029.6,027.9,000.0,038.1,031.1,26.1,0000.0,0003.91,0007.21,0003.35
2023-06-11 10:59:00,SystemResetWarning,0832.1,5.00,000.00,029.6,027.9,000.0,038.1,031.1,26.1,0000.0,0003.92,0007.29,0003.35
